sat.trackr.live / text

‹ back to catalog

STARLINK-30871

NORAD 58228 · 2023-170Y

PAYLOAD ACTIVE UNKNOWN

§ Identity

Operator
Country
US
Launch date
2023-11-03
Launch site
AFETR
Launch vehicle
Mass (kg)
RCS (m²)

Purposes: comms

External: N2YO · Heavens-Above · Gunter

§ Orbital elements

Epoch: 2026-09-20T10:51:23.853888Z

Period
94.27 min
Inclination
43.0021°
Eccentricity
0.0000976
Mean motion
15.27570604 rev/d
Perigee alt
482.4 km
Apogee alt
483.7 km
Semi-major
6,861.2 km
B*
2.0475e-4
RAAN
174.4828°
Arg perigee
267.9104°
Mean anomaly
92.1636°
Rev number
16,008

§ Raw data

STARLINK-308711 58228U 23170Y   26263.45235942  .00005375  00000+0  20475-3 0  99912 58228  43.0021 174.4828 0000976 267.9104  92.1636 15.27570604160081

JSON: /api/v1/satellites/58228 · /tle

For live sub-satellite position, see the globe view (requires WebGL).

§ Visibility from observer

Set your observer location to see the next 7 days of passes ≥ 10°. The values pass through the URL so the page stays shareable.

No JS? Fill the form by hand. The geolocation button needs JavaScript.